Tracking 19636 objects as of 24-May-2019
HD Live streaming from Space Station
objects crossing your sky now

FLOCK 1C 10

Track FLOCK 1C 10 now!
10-day predictions
FLOCK 1C 10 is classified as:


NORAD ID: 40023
Int'l Code: 2014-033P
Perigee: 596.6 km
Apogee: 615.4 km
Inclination: 97.9 °
Period: 96.7 minutes
Semi major axis: 6977 km
RCS: Unknown
Launch date: June 19, 2014
Source: United States (US)
Launch site: Orenburg, Russia (OREN)
aabbcc
Your satellite tracking list
Your tracking list is empty




NASA's NSSDC Master Catalog

Two Line Element Set (TLE):
1 40023U 14033P   19143.81786694 +.00000364 +00000-0 +43931-4 0  9994
2 40023 097.9233 066.4557 0013434 139.6297 220.5920 14.89699640267527
Source of the keplerian elements: Caltech